Location: Newark
(44.3290°N, 23.7757°E)
Time: 14:31:18
(UTC+00:00)

BlueWalker 3 - Pass Details

Date: 04 December 2022
Orbit: 499 x 517 km, 53.2° (Epoch: 01 February)

Event Time Altitude Azimuth Distance (km) Brightness Sun altitude
Rises 15:26:40 0° 290° (WNW) 2,631 6.4 -7.2°
Reaches altitude 10° 15:29:16 10° 306° (NW) 1,740 5.1 -7.7°
Maximum altitude 15:32:22 22° 358° (N) 1,163 3.6 -8.2°
Enters shadow 15:35:23 10° 50° (NE) 1,703 4.0 -8.7°
